TimeCDT,TemperatureF,Dew PointF,Humidity,Sea Level PressureIn,VisibilityMPH,Wind Direction,Wind SpeedMPH,Gust SpeedMPH,PrecipitationIn,Events,Conditions,WindDirDegrees,DateUTC
12:53 AM,72.0,62.1,71,29.91,10.0,North,4.6,-,N/A,,Clear,350,2013-09-01 05:53:00
1:53 AM,69.1,61.0,75,29.93,10.0,NNW,3.5,-,N/A,,Clear,340,2013-09-01 06:53:00
2:53 AM,66.0,61.0,84,29.94,10.0,NNW,3.5,-,N/A,,Partly Cloudy,340,2013-09-01 07:53:00
3:53 AM,68.0,55.0,63,29.93,10.0,NNE,15.0,21.9,N/A,,Clear,20,2013-09-01 08:53:00
4:53 AM,64.9,53.1,65,29.94,10.0,NNE,5.8,-,N/A,,Clear,30,2013-09-01 09:53:00
5:53 AM,62.1,52.0,70,29.96,10.0,NNE,4.6,-,N/A,,Clear,20,2013-09-01 10:53:00
6:53 AM,60.1,52.0,75,30.01,10.0,WNW,3.5,-,N/A,,Clear,300,2013-09-01 11:53:00
7:53 AM,57.0,53.1,87,30.04,10.0,NW,3.5,-,N/A,,Clear,320,2013-09-01 12:53:00
8:53 AM,64.9,54.0,68,30.06,10.0,Calm,Calm,-,N/A,,Clear,0,2013-09-01 13:53:00
9:53 AM,69.1,54.0,58,30.07,10.0,Calm,Calm,-,N/A,,Clear,0,2013-09-01 14:53:00
10:53 AM,75.0,52.0,44,30.07,10.0,NNE,4.6,-,N/A,,Clear,30,2013-09-01 15:53:00
11:53 AM,75.9,50.0,40,30.06,10.0,Calm,Calm,-,N/A,,Clear,0,2013-09-01 16:53:00
12:53 PM,80.1,48.9,34,30.04,10.0,NE,3.5,-,N/A,,Clear,40,2013-09-01 17:53:00
1:53 PM,82.0,48.0,30,30.03,10.0,Calm,Calm,-,N/A,,Clear,0,2013-09-01 18:53:00
2:53 PM,82.9,48.9,31,30.02,10.0,NW,6.9,-,N/A,,Clear,310,2013-09-01 19:53:00
3:53 PM,84.0,48.0,28,30.00,10.0,North,8.1,-,N/A,,Clear,350,2013-09-01 20:53:00
4:53 PM,84.0,46.9,27,29.99,10.0,Variable,5.8,-,N/A,,Clear,0,2013-09-01 21:53:00
5:53 PM,82.9,48.0,29,29.98,10.0,NE,5.8,-,N/A,,Clear,40,2013-09-01 22:53:00
6:53 PM,81.0,50.0,34,29.99,10.0,NE,5.8,-,N/A,,Clear,40,2013-09-01 23:53:00
7:53 PM,73.9,53.1,48,30.01,10.0,NNE,4.6,-,N/A,,Clear,30,2013-09-02 00:53:00
8:53 PM,66.0,52.0,60,30.03,10.0,East,3.5,-,N/A,,Clear,100,2013-09-02 01:53:00
9:53 PM,64.0,52.0,65,30.04,10.0,East,3.5,-,N/A,,Clear,90,2013-09-02 02:53:00
10:53 PM,60.1,51.1,72,30.06,10.0,East,4.6,-,N/A,,Clear,80,2013-09-02 03:53:00
11:53 PM,57.0,51.1,81,30.07,10.0,Calm,Calm,-,N/A,,Clear,0,2013-09-02 04:53:00